| time (UTC) | temp F | wind direction | speed MPH | gust MPH | rain 1hr in | rain 24hr in | rain mn in | humidity % | barometer mb |
| 20260505235640 | 51 | 244 | 1.0 | 1.0 | 0.00 | 0.00 | 0.00 | 98 | 1007.5 |
| 20260505235209 | 51 | 245 | 2.0 | 3.0 | 0.00 | 0.00 | 0.00 | 98 | 1007.6 |
| 20260505234658 | 51 | 240 | 1.0 | 3.0 | 0.00 | 0.00 | 0.00 | 98 | 1007.4 |
| 20260505234152 | 51 | 228 | 0.0 | 1.0 | 0.00 | 0.00 | 0.00 | 98 | 1007.5 |
| 20260505233216 | 51 | 263 | 1.0 | 3.0 | 0.00 | 0.00 | 0.00 | 98 | 1007.6 |
| 20260505232030 | 51 | 270 | 3.0 | 3.0 | 0.00 | 0.00 | 0.00 | 97 | 1007.7 |
| 20260505231520 | 52 | 234 | 0.0 | 1.0 | 0.00 | 0.00 | 0.00 | 97 | 1007.5 |
| 20260505230500 | 52 | 248 | 2.0 | 3.0 | 0.00 | 0.00 | 0.00 | 97 | 1007.8 |
| 20260505225950 | 52 | 241 | 0.0 | 1.0 | 0.00 | 0.00 | 0.00 | 97 | 1007.8 |
| 20260505225440 | 52 | 259 | 1.0 | 2.0 | 0.00 | 0.00 | 0.00 | 97 | 1008.0 |
| 20260505224933 | 52 | 304 | 2.0 | 3.0 | 0.00 | 0.00 | 0.00 | 97 | 1007.9 |
| 20260505224459 | 52 | 242 | 0.0 | 2.0 | 0.00 | 0.00 | 0.00 | 97 | 1007.8 |
| 20260505224033 | 52 | 231 | 1.0 | 2.0 | 0.00 | 0.00 | 0.00 | 97 | 1008.0 |
| 20260505223400 | 52 | 245 | 1.0 | 1.0 | 0.00 | 0.00 | 0.00 | 97 | 1008.1 |
| 20260505222343 | 53 | 203 | 1.0 | 2.0 | 0.00 | 0.00 | 0.00 | 97 | 1008.0 |
| 20260505220300 | 53 | 238 | 0.0 | 3.0 | 0.00 | 0.00 | 0.00 | 96 | 1007.9 |
| 20260505215750 | 53 | 273 | 2.0 | 2.0 | 0.00 | 0.00 | 0.08 | 96 | 1008.0 |
| 20260505214730 | 53 | 284 | 1.0 | 3.0 | 0.00 | 0.00 | 0.08 | 96 | 1007.8 |
| 20260505214223 | 53 | 225 | 0.0 | 1.0 | 0.00 | 0.00 | 0.08 | 95 | 1008.1 |
| 20260505212650 | 53 | 242 | 1.0 | 1.0 | 0.00 | 0.00 | 0.08 | 95 | 1007.8 |
| 20260505212218 | 53 | 255 | 1.0 | 2.0 | 0.00 | 0.00 | 0.08 | 95 | 1008.2 |
| 20260505211630 | 53 | 231 | 1.0 | 2.0 | 0.00 | 0.00 | 0.08 | 95 | 1008.4 |
| 20260505211159 | 53 | 240 | 1.0 | 2.0 | 0.00 | 0.00 | 0.08 | 96 | 1008.3 |
| 20260505210103 | 53 | 234 | 1.0 | 2.0 | 0.00 | 0.00 | 0.08 | 95 | 1008.0 |
| 20260505205550 | 53 | 229 | 0.0 | 6.0 | 0.00 | 0.00 | 0.08 | 95 | 1008.2 |
| 20260505204533 | 54 | 224 | 0.0 | 2.0 | 0.00 | 0.00 | 0.08 | 95 | 1008.1 |
| 20260505204058 | 54 | 263 | 1.0 | 1.0 | 0.00 | 0.00 | 0.08 | 95 | 1008.3 |
| 20260505203510 | 54 | 264 | 2.0 | 3.0 | 0.00 | 0.00 | 0.08 | 95 | 1008.2 |
| 20260505203000 | 54 | 262 | 1.0 | 2.0 | 0.00 | 0.00 | 0.08 | 95 | 1008.1 |
| 20260505202450 | 54 | 243 | 1.0 | 2.0 | 0.00 | 0.00 | 0.08 | 95 | 1008.1 |
| 20260505201943 | 54 | 246 | 1.0 | 2.0 | 0.00 | 0.00 | 0.08 | 95 | 1008.2 |
| 20260505201430 | 54 | 236 | 1.0 | 3.0 | 0.00 | 0.00 | 0.08 | 95 | 1008.3 |
| 20260505200920 | 54 | 227 | 0.0 | 1.0 | 0.00 | 0.00 | 0.08 | 95 | 1008.2 |
| 20260505195900 | 54 | 247 | 0.0 | 1.0 | 0.00 | 0.00 | 0.08 | 95 | 1008.3 |
| 20260505195350 | 54 | 218 | 1.0 | 2.0 | 0.00 | 0.00 | 0.08 | 95 | 1008.2 |
| 20260505194409 | 55 | 237 | 2.0 | 2.0 | 0.00 | 0.00 | 0.08 | 94 | 1008.1 |
| 20260505192800 | 55 | 216 | 0.0 | 3.0 | 0.00 | 0.00 | 0.08 | 93 | 1007.9 |
| 20260505192412 | 55 | 252 | 1.0 | 4.0 | 0.00 | 0.00 | 0.08 | 93 | 1007.9 |
| 20260505191230 | 56 | 285 | 1.0 | 4.0 | 0.00 | 0.00 | 0.08 | 93 | 1008.3 |
| 20260505190721 | 56 | 227 | 0.0 | 1.0 | 0.00 | 0.00 | 0.08 | 93 | 1008.0 |
| 20260505190210 | 56 | 181 | 1.0 | 3.0 | 0.00 | 0.00 | 0.08 | 93 | 1008.1 |
| 20260505185700 | 56 | 236 | 1.0 | 2.0 | 0.00 | 0.00 | 0.08 | 92 | 1007.9 |
| 20260505185228 | 56 | 230 | 0.0 | 1.0 | 0.00 | 0.00 | 0.08 | 92 | 1008.0 |
| 20260505184130 | 57 | 298 | 1.0 | 2.0 | 0.00 | 0.00 | 0.08 | 92 | 1007.8 |
| 20260505183147 | 57 | 237 | 0.0 | 2.0 | 0.00 | 0.00 | 0.08 | 91 | 1007.6 |
| 20260505180519 | 59 | 255 | 2.0 | 2.0 | 0.00 | 0.00 | 0.08 | 89 | 1008.0 |
| 20260505180009 | 59 | 209 | 0.0 | 2.0 | 0.00 | 0.00 | 0.08 | 88 | 1008.0 |
| 20260505175537 | 59 | 275 | 1.0 | 1.0 | 0.00 | 0.00 | 0.08 | 88 | 1008.1 |
| 20260505175028 | 60 | 334 | 2.0 | 3.0 | 0.00 | 0.00 | 0.08 | 87 | 1007.9 |
| 20260505174439 | 60 | 233 | 0.0 | 1.0 | 0.00 | 0.00 | 0.08 | 87 | 1007.7 |
| 20260505173419 | 60 | 286 | 2.0 | 3.0 | 0.00 | 0.00 | 0.08 | 87 | 1008.0 |
| 20260505172912 | 60 | 281 | 0.0 | 3.0 | 0.00 | 0.00 | 0.08 | 87 | 1008.0 |
| 20260505172359 | 60 | 225 | 0.0 | 1.0 | 0.00 | 0.00 | 0.08 | 86 | 1008.0 |
| 20260505171339 | 61 | 220 | 2.0 | 3.0 | 0.00 | 0.00 | 0.08 | 85 | 1008.2 |
| 20260505170357 | 61 | 315 | 2.0 | 3.0 | 0.00 | 0.00 | 0.08 | 84 | 1007.6 |
| 20260505165813 | 62 | 226 | 0.0 | 2.0 | 0.00 | 0.00 | 0.08 | 84 | 1007.7 |
| 20260505165259 | 62 | 203 | 0.0 | 1.0 | 0.00 | 0.00 | 0.08 | 84 | 1007.8 |
| 20260505164239 | 62 | 219 | 0.0 | 2.0 | 0.00 | 0.00 | 0.08 | 84 | 1008.0 |
| 20260505163729 | 62 | 276 | 2.0 | 3.0 | 0.00 | 0.00 | 0.08 | 84 | 1007.8 |
| 20260505162712 | 62 | 210 | 0.0 | 3.0 | 0.00 | 0.00 | 0.08 | 84 | 1007.7 |
| 20260505161652 | 62 | 308 | 2.0 | 2.0 | 0.00 | 0.00 | 0.08 | 84 | 1008.0 |
| 20260505161139 | 62 | 240 | 1.0 | 3.0 | 0.00 | 0.00 | 0.08 | 84 | 1008.1 |
| 20260505160629 | 62 | 230 | 1.0 | 2.0 | 0.00 | 0.00 | 0.08 | 83 | 1008.2 |
| 20260505160158 | 63 | 218 | 1.0 | 2.0 | 0.00 | 0.00 | 0.08 | 82 | 1008.1 |
| 20260505153019 | 64 | 242 | 1.0 | 1.0 | 0.00 | 0.00 | 0.08 | 77 | 1008.1 |
| 20260505152547 | 65 | 227 | 0.0 | 1.0 | 0.00 | 0.00 | 0.08 | 78 | 1008.2 |
| 20260505152002 | 65 | 220 | 0.0 | 1.0 | 0.00 | 0.00 | 0.08 | 77 | 1008.1 |
| 20260505151449 | 66 | 247 | 1.0 | 2.0 | 0.00 | 0.00 | 0.08 | 76 | 1008.2 |
| 20260505150942 | 66 | 248 | 1.0 | 1.0 | 0.00 | 0.00 | 0.08 | 74 | 1008.1 |
| 20260505140229 | 68 | 248 | 1.0 | 2.0 | 0.00 | 0.00 | 0.08 | 74 | 1008.3 |
| 20260505125009 | 65 | 178 | 0.0 | 1.0 | 0.00 | 0.00 | 0.08 | 77 | 1009.0 |
| 20260505124027 | 65 | 170 | 0.0 | 1.0 | 0.00 | 0.00 | 0.08 | 78 | 1008.9 |
| 20260505123439 | 65 | 175 | 0.0 | 0.0 | 0.00 | 0.00 | 0.08 | 80 | 1008.8 |
| 20260505121909 | 66 | 172 | 0.0 | 1.0 | 0.00 | 0.00 | 0.08 | 78 | 1009.0 |
| 20260505121437 | 66 | 171 | 0.0 | 0.0 | 0.00 | 0.00 | 0.08 | 80 | 1009.0 |
| 20260505120852 | 66 | 171 | 0.0 | 0.0 | 0.00 | 0.00 | 0.08 | 81 | 1008.9 |
| 20260505120338 | 65 | 175 | 1.0 | 1.0 | 0.00 | 0.00 | 0.08 | 81 | 1009.3 |
| 20260505115319 | 64 | 174 | 0.0 | 0.0 | 0.00 | 0.00 | 0.08 | 82 | 1009.0 |
| 20260505114812 | 65 | 172 | 0.0 | 1.0 | 0.00 | 0.00 | 0.08 | 82 | 1008.9 |
| 20260505114259 | 65 | 179 | 0.0 | 0.0 | 0.00 | 0.00 | 0.08 | 80 | 1009.0 |
| 20260505112729 | 65 | 144 | 1.0 | 2.0 | 0.00 | 0.00 | 0.08 | 81 | 1009.2 |
| 20260505112219 | 64 | 169 | 0.0 | 0.0 | 0.00 | 0.00 | 0.08 | 84 | 1009.0 |
| 20260505111750 | 64 | 170 | 0.0 | 1.0 | 0.00 | 0.00 | 0.08 | 83 | 1009.1 |
| 20260505110139 | 64 | 165 | 0.0 | 1.0 | 0.00 | 0.00 | 0.08 | 84 | 1009.4 |
| 20260505102018 | 62 | 175 | 0.0 | 0.0 | 0.00 | 0.00 | 0.08 | 82 | 1009.1 |
| 20260505100958 | 62 | 176 | 1.0 | 1.0 | 0.00 | 0.00 | 0.08 | 81 | 1009.4 |
| 20260505093348 | 62 | 174 | 0.0 | 0.0 | 0.00 | 0.00 | 0.08 | 83 | 1009.4 |
| 20260505092838 | 62 | 190 | 1.0 | 2.0 | 0.00 | 0.00 | 0.08 | 82 | 1009.6 |
| 20260505092328 | 62 | 170 | 0.0 | 1.0 | 0.00 | 0.00 | 0.08 | 83 | 1009.6 |
| 20260505091857 | 62 | 170 | 1.0 | 2.0 | 0.00 | 0.00 | 0.08 | 82 | 1009.7 |
| 20260505091309 | 62 | 169 | 0.0 | 1.0 | 0.00 | 0.00 | 0.08 | 83 | 1009.5 |
| 20260505090758 | 62 | 176 | 1.0 | 2.0 | 0.00 | 0.00 | 0.08 | 83 | 1009.6 |
| 20260505085817 | 61 | 171 | 0.0 | 0.0 | 0.00 | 0.00 | 0.08 | 84 | 1009.9 |
| 20260505085228 | 61 | 176 | 0.0 | 1.0 | 0.00 | 0.00 | 0.08 | 85 | 1009.6 |
| 20260505084718 | 61 | 176 | 0.0 | 0.0 | 0.00 | 0.00 | 0.08 | 86 | 1009.6 |
| 20260505083825 | 60 | 173 | 0.0 | 1.0 | 0.00 | 0.00 | 0.08 | 86 | 1009.7 |
| 20260505082641 | 60 | 173 | 0.0 | 1.0 | 0.00 | 0.00 | 0.08 | 88 | 1009.6 |
| 20260505082128 | 60 | 172 | 0.0 | 1.0 | 0.00 | 0.00 | 0.08 | 88 | 1009.7 |
| 20260505081621 | 60 | 161 | 1.0 | 2.0 | 0.00 | 0.00 | 0.08 | 88 | 1009.8 |
| 20260505081108 | 60 | 170 | 0.0 | 1.0 | 0.00 | 0.00 | 0.08 | 89 | 1009.8 |
| 20260505080126 | 59 | 158 | 1.0 | 3.0 | 0.00 | 0.00 | 0.08 | 88 | 1009.7 |
| 20260505072438 | 58 | 175 | 0.0 | 1.0 | 0.00 | 0.00 | 0.08 | 92 | 1009.9 |
| 20260505071928 | 58 | 175 | 0.0 | 1.0 | 0.00 | 0.00 | 0.08 | 93 | 1009.7 |
| 20260505071421 | 58 | 177 | 0.0 | 2.0 | 0.00 | 0.00 | 0.08 | 93 | 1009.7 |
| 20260505070436 | 57 | 173 | 1.0 | 1.0 | 0.00 | 0.00 | 0.08 | 95 | 1009.7 |
| 20260505070010 | 57 | 159 | 1.0 | 7.0 | 0.00 | 0.00 | 0.08 | 96 | 1009.7 |
| 20260505065338 | 57 | 175 | 0.0 | 1.0 | 0.00 | 0.00 | 0.08 | 98 | 1009.4 |
| 20260505064828 | 57 | 178 | 0.0 | 1.0 | 0.00 | 0.00 | 0.08 | 98 | 1009.6 |
| 20260505064318 | 57 | 170 | 0.0 | 1.0 | 0.00 | 0.00 | 0.08 | 98 | 1009.5 |
| 20260505063808 | 56 | 175 | 0.0 | 1.0 | 0.00 | 0.00 | 0.08 | 98 | 1009.6 |
| 20260505063258 | 56 | 175 | 0.0 | 1.0 | 0.00 | 0.00 | 0.08 | 99 | 1009.9 |
| 20260505062748 | 56 | 176 | 0.0 | 1.0 | 0.00 | 0.00 | 0.08 | 99 | 1009.7 |
| 20260505062238 | 56 | 175 | 0.0 | 2.0 | 0.00 | 0.00 | 0.08 | 99 | 1009.9 |
| 20260505061221 | 56 | 171 | 0.0 | 0.0 | 0.00 | 0.00 | 0.08 | 99 | 1009.9 |
| 20260505060158 | 56 | 175 | 0.0 | 1.0 | 0.00 | 0.00 | 0.08 | 99 | 1009.9 |
| 20260505055726 | 56 | 178 | 0.0 | 0.0 | 0.00 | 0.00 | 0.08 | 99 | 1010.0 |
| 20260505055216 | 56 | 174 | 0.0 | 1.0 | 0.00 | 0.00 | 0.08 | 99 | 1010.0 |
| 20260505054118 | 55 | 174 | 0.0 | 0.0 | 0.01 | 0.00 | 0.08 | 99 | 1010.0 |
| 20260505053611 | 55 | 173 | 1.0 | 1.0 | 0.01 | 0.00 | 0.08 | 99 | 1010.1 |
| 20260505052550 | 55 | 174 | 1.0 | 2.0 | 0.01 | 0.00 | 0.08 | 99 | 1010.1 |
| 20260505051018 | 55 | 175 | 0.0 | 0.0 | 0.04 | 0.00 | 0.08 | 99 | 1010.0 |
| 20260505050508 | 55 | 176 | 0.0 | 1.0 | 0.06 | 0.00 | 0.08 | 99 | 1010.0 |
| 20260505035801 | 55 | 174 | 0.0 | 0.0 | 0.00 | 0.00 | 0.00 | 95 | 1010.5 |
| 20260505035247 | 55 | 178 | 1.0 | 1.0 | 0.00 | 0.00 | 0.00 | 95 | 1010.4 |
| 20260505034818 | 55 | 177 | 0.0 | 1.0 | 0.00 | 0.00 | 0.00 | 94 | 1010.2 |
| 20260505033207 | 55 | 176 | 0.0 | 1.0 | 0.00 | 0.00 | 0.00 | 93 | 1010.2 |
| 20260505032147 | 56 | 177 | 0.0 | 0.0 | 0.00 | 0.00 | 0.00 | 92 | 1010.5 |
| 20260505031637 | 56 | 179 | 0.0 | 1.0 | 0.00 | 0.00 | 0.00 | 91 | 1010.6 |
| 20260505031127 | 56 | 175 | 0.0 | 0.0 | 0.00 | 0.00 | 0.00 | 90 | 1010.5 |
| 20260505030620 | 56 | 170 | 0.0 | 1.0 | 0.00 | 0.00 | 0.00 | 89 | 1010.7 |
| 20260505030111 | 56 | 177 | 0.0 | 0.0 | 0.00 | 0.00 | 0.00 | 88 | 1010.8 |
| 20260505025600 | 56 | 174 | 0.0 | 1.0 | 0.00 | 0.00 | 0.00 | 88 | 1010.9 |
| 20260505025125 | 57 | 173 | 0.0 | 1.0 | 0.00 | 0.00 | 0.00 | 87 | 1010.6 |
| 20260505024537 | 57 | 170 | 0.0 | 0.0 | 0.00 | 0.00 | 0.00 | 86 | 1011.0 |
| 20260505024027 | 57 | 169 | 0.0 | 0.0 | 0.00 | 0.00 | 0.00 | 86 | 1010.9 |
| 20260505022936 | 57 | 175 | 0.0 | 0.0 | 0.00 | 0.00 | 0.00 | 86 | 1010.9 |
| 20260505022504 | 57 | 175 | 0.0 | 1.0 | 0.00 | 0.00 | 0.00 | 86 | 1011.0 |
| 20260505021919 | 57 | 182 | 0.0 | 0.0 | 0.00 | 0.00 | 0.00 | 86 | 1011.0 |
| 20260505021410 | 57 | 177 | 0.0 | 1.0 | 0.00 | 0.00 | 0.00 | 85 | 1011.2 |
| 20260505020859 | 57 | 179 | 0.0 | 0.0 | 0.00 | 0.00 | 0.00 | 85 | 1010.8 |
| 20260505020346 | 57 | 179 | 0.0 | 0.0 | 0.00 | 0.00 | 0.00 | 85 | 1010.9 |
| 20260505015836 | 57 | 192 | 0.0 | 1.0 | 0.00 | 0.00 | 0.00 | 85 | 1011.1 |
| 20260505015326 | 57 | 177 | 1.0 | 1.0 | 0.00 | 0.00 | 0.00 | 85 | 1011.2 |
| 20260505014748 | 57 | 191 | 0.0 | 1.0 | 0.00 | 0.00 | 0.00 | 85 | 1011.0 |
| 20260505014235 | 57 | 176 | 0.0 | 1.0 | 0.00 | 0.00 | 0.00 | 85 | 1011.2 |
| 20260505013215 | 57 | 154 | 0.0 | 1.0 | 0.00 | 0.00 | 0.00 | 85 | 1011.5 |
| 20260505012155 | 57 | 91 | 1.0 | 2.0 | 0.00 | 0.00 | 0.00 | 85 | 1011.2 |
| 20260505011648 | 57 | 188 | 0.0 | 0.0 | 0.00 | 0.00 | 0.00 | 85 | 1010.8 |
| 20260505011213 | 57 | 183 | 0.0 | 0.0 | 0.00 | 0.00 | 0.00 | 85 | 1010.8 |
| 20260505010625 | 57 | 187 | 0.0 | 2.0 | 0.00 | 0.00 | 0.00 | 85 | 1010.9 |
| 20260505005643 | 57 | 198 | 0.0 | 0.0 | 0.00 | 0.00 | 0.00 | 84 | 1010.9 |
| 20260505005055 | 57 | 193 | 0.0 | 0.0 | 0.00 | 0.00 | 0.00 | 84 | 1011.0 |
| 20260505003525 | 57 | 229 | 0.0 | 0.0 | 0.00 | 0.00 | 0.00 | 84 | 1011.2 |
| 20260505001955 | 57 | 226 | 0.0 | 0.0 | 0.00 | 0.00 | 0.00 | 84 | 1011.3 |
| 20260505001445 | 57 | 226 | 0.0 | 0.0 | 0.00 | 0.00 | 0.00 | 84 | 1011.5 |